Weather History for Van Nuys, CA

Change the Weather History Date:

Sunday, January 12, 2014

  Actual Average Record
Temperature  
Mean Temperature 64 °F -  
Max Temperature 70 °F 64 °F 82 °F (2009)
Min Temperature 57 °F 44 °F 36 °F (2013)
Degree Days  
Heating Degree Days 2    
Growing Degree Days 14 (Base 50)    
Moisture  
Dew Point 30 °F    
Average Humidity 30    
Maximum Humidity 47    
Minimum Humidity 11    
Precipitation  
Precipitation 0.00 in - - ()
Sea Level Pressure  
Sea Level Pressure 30.07 in    
Wind  
Wind Speed 17 mph (North)    
Max Wind Speed 26 mph    
Max Gust Speed 37 mph    
Visibility 10 miles    
Events      
Averages and records for this station are not official NWS values.
T = Trace of Precipitation, MM = Missing Value Source: NWS Daily Summary

Daily Weather History Graph

Daily Weather History Graph

Search for Another Location

Airport:

Trip Planner

Search our weather history database for the weather conditions in past years. The results will help you decide how hot, cold, wet, or windy it might be!

Date:

Astronomy

Jan. 12, 2014 Rise Set
Actual Time 7:00 AM PST 5:04 PM PST
Civil Twilight 6:32 AM PST 5:32 PM PST
Nautical Twilight 6:02 AM PST 6:03 PM PST
Astronomical Twilight 5:31 AM PST 6:33 PM PST
Moon 2:35 PM PST (1/12) 4:04 AM PST (1/12)
Length of Visible Light 10h 59m
Length of Day
10h 04m
Waxing Gibbous, 90% of the Moon is Illuminated
Jan 12
Waxing Gibbous
Jan 15
Full
Jan 23
Last Quarter
Jan 30
New
Feb 6
First Quarter

Hourly Weather History & Observations

Time (PST) Temp. Dew Point Humidity Pressure Visibility Wind Dir Wind Speed Gust Speed Precip Events Conditions
12:51 AM 61.0 °F 37.9 °F 42% 30.04 in 10.0 mi North 16.1 mph 26.5 mph N/A   Clear
1:51 AM 60.1 °F 37.9 °F 44% 30.03 in 10.0 mi North 24.2 mph 35.7 mph N/A   Clear
2:51 AM 60.1 °F 37.9 °F 44% 30.03 in 10.0 mi North 20.7 mph 27.6 mph N/A   Clear
3:51 AM 61.0 °F 39.0 °F 44% 30.03 in 10.0 mi North 18.4 mph 26.5 mph N/A   Clear
4:51 AM 60.1 °F 37.9 °F 44% 30.03 in 10.0 mi North 19.6 mph 27.6 mph N/A   Clear
5:51 AM 57.9 °F 37.9 °F 47% 30.04 in 10.0 mi NNE 19.6 mph 26.5 mph N/A   Clear
6:51 AM 57.9 °F 37.0 °F 46% 30.06 in 10.0 mi North 6.9 mph 17.3 mph N/A   Clear
7:51 AM 57.0 °F 37.0 °F 47% 30.08 in 10.0 mi North 9.2 mph - N/A   Clear
8:51 AM 61.0 °F 35.1 °F 38% 30.10 in 10.0 mi North 15.0 mph 26.5 mph N/A   Clear
9:51 AM 62.1 °F 33.1 °F 34% 30.12 in 10.0 mi NNW 9.2 mph 18.4 mph N/A   Clear
10:51 AM 63.0 °F 30.9 °F 30% 30.10 in 10.0 mi North 17.3 mph 29.9 mph N/A   Clear
11:51 AM 64.9 °F 30.9 °F 28% 30.09 in 10.0 mi North 18.4 mph 25.3 mph N/A   Mostly Cloudy
12:51 PM 68.0 °F 30.0 °F 24% 30.06 in 10.0 mi Variable 6.9 mph 17.3 mph N/A   Mostly Cloudy
1:51 PM 69.1 °F 28.9 °F 22% 30.04 in 10.0 mi North 26.5 mph 36.8 mph N/A   Clear
1:53 PM 69.8 °F 28.4 °F 21% 30.06 in 10.0 mi North 26.5 mph 36.8 mph N/A   Mostly Cloudy
2:51 PM 70.0 °F 28.9 °F 22% 30.03 in 10.0 mi North 25.3 mph 36.8 mph N/A   Mostly Cloudy
3:51 PM 68.0 °F 28.9 °F 23% 30.04 in 10.0 mi North 20.7 mph 28.8 mph N/A   Mostly Cloudy
4:51 PM 66.0 °F 28.0 °F 24% 30.05 in 10.0 mi North 21.9 mph 28.8 mph N/A   Mostly Cloudy
5:51 PM 64.9 °F 28.0 °F 25% 30.08 in 10.0 mi North 19.6 mph 25.3 mph N/A   Mostly Cloudy
6:51 PM 64.0 °F 26.1 °F 24% 30.09 in 10.0 mi North 15.0 mph - N/A   Partly Cloudy
7:51 PM 64.0 °F 25.0 °F 23% 30.11 in 10.0 mi North 16.1 mph - N/A   Clear
8:51 PM 63.0 °F 21.0 °F 20% 30.12 in 10.0 mi North 12.7 mph - N/A   Clear
9:51 PM 63.0 °F 14.0 °F 15% 30.15 in 10.0 mi North 9.2 mph - N/A   Clear
10:51 PM 63.0 °F 10.9 °F 13% 30.14 in 10.0 mi North 11.5 mph - N/A   Clear
11:51 PM 64.9 °F 9.0 °F 11% 30.14 in 10.0 mi North 13.8 mph - N/A   Clear